User: anonymous
Location: Cape Cod Imaging Station
(41.7417°N, 70.1583°W)
Time: 07:42:37
(UTC-04:00)
Language:

Cosmos 1508 Rocket - Orbit

View from above orbital plane
View from above orbital plane
View from above satellite
View from above satellite

Ground track
Ground track

The orbit data is extracted from the following two-line orbital elements,

1 14484U 83111B   14114.19964394  .00041960  00000-0  68158-3 0  4986
2 14484 082.8449 021.2335 0231407 107.0078 045.3104 15.27747918564300
Epoch (UTC): 24 April 2014 04:47:29
Eccentricity: 0.0231407
inclination: 82.8449°
perigee height: 324 km
apogee height: 641 km
right ascension of ascending node: 21.2335°
argument of perigee: 107.0078°
revolutions per day: 15.27747918
mean anomaly at epoch: 45.3104°
orbit number at epoch: 56430

The dashed part of the orbit path shows where the satellite is in the earth's shadow,  

DLR